www.pogodaiklimat.ru

Погода и климат >> Архив погоды >> Франция >> Гренобль


ПОГОДА в Гренобле

  • Прогноз погоды в Гренобле
  • Монитор погоды в Гренобле

АРХИВ ПОГОДЫ в Гренобле

Время (UTC), дата Ветер
(напр.,м/с)
 
Видим.   Явления Облачность Т
(С)
Тd
(С)
f
(%)
Тe
(С)
Тes
(С)
Комфортность P
(гПа)
Po
(гПа)
Тmin
(С)
Tmax
(С)
R
(мм)
R24
(мм)
S
(см)
22 8.06 С 1
{3}
н/о н/о +13.5 +9.7 78 +14 +14 1023.1 996.8
23 8.06 ЮЗ 1
{2}
н/о н/о +13.0 +10.0 82 +14 +14 1023.4 997.1
00 9.06 СЗ 1
{2}
н/о н/о +12.8 +10.2 84 +13 +13 1023.2 996.9
01 9.06 В 2
{2}
н/о н/о +13.1 +9.5 79 +13 +13 1022.8 996.5
02 9.06 В 1
{3}
н/о н/о +13.5 +9.3 76 +14 +14 1022.4 996.1
03 9.06 С 1
{4}
н/о н/о +13.6 +9.0 74 +14 +14 1021.4 995.2
04 9.06 С 2
{6}
н/о н/о +13.6 +10.8 83 +13 +13 1022.0 995.8 0.4
05 9.06 ЮВ 2
{6}
н/о н/о +13.4 +10.7 84 +13 +13 1021.5 995.3 0.4
06 9.06 С 2
{4}
н/о н/о +13.5 +11.9 90 +13 +13 1022.2 996.0 +12.5 +24.1 1
07 9.06 Ю 3
{6}
н/о н/о +13.7 +12.1 90 +12 +12 1024.6 998.3 1
08 9.06 Ю 2
{7}
н/о н/о +14.1 +12.1 88 +14 +14 1021.6 995.4 1
09 9.06 В 1
{4}
н/о н/о +14.3 +12.3 88 +15 +15 1022.2 996.0 3
10 9.06 С 2
{3}
н/о н/о +15.0 +13.2 89 +15 +15 1021.5 995.4 0.4
11 9.06 В 2
{3}
н/о н/о +14.8 +13.0 89 +15 +15 1021.3 995.2 1
12 9.06 СВ 2
{4}
н/о н/о +15.3 +13.5 89 +15 +15 1020.8 994.8 2
13 9.06 З 3
{5}
н/о н/о +17.4 +14.5 83 +18 +18 1019.2 993.4
14 9.06 З 2
{6}
н/о н/о +18.8 +14.5 76 +21 +21 комфорт 1017.6 992.0
15 9.06 В 1
{3}
н/о н/о +20.7 +15.3 71 +25 +25 комфорт 1016.5 991.1
16 9.06 СВ 4
{5}
н/о н/о +19.6 +14.8 74 +21 +21 комфорт 1016.0 990.5
17 9.06 СВ 4
{7}
н/о н/о +18.0 +13.9 77 +18 +18 1016.3 990.6
18 9.06 СВ 3
{7}
н/о н/о +17.2 +13.5 79 +17 +17 1016.2 990.5 +13.3 +20.7
19 9.06 СВ 4
{9}
н/о н/о +16.6 +12.9 79 +16 +16 1016.0 990.2
20 9.06 СВ 5
{8}
н/о н/о +16.2 +13.1 82 +15 +15 1015.1 989.3
21 9.06 С 3
{6}
н/о н/о +16.0 +13.3 84 +16 +16 1016.1 990.3
22 9.06 ЮЗ 1
{4}
н/о н/о +16.0 +13.3 84 +17 +17 1017.5 991.6
23 9.06 СВ 1
{6}
н/о н/о +15.9 +12.8 82 +17 +17 1016.3 990.4
00 10.06 З 2
{5}
н/о н/о +15.7 +13.4 86 +16 +16 1016.6 990.7
01 10.06 ЮЗ 2
{6}
н/о н/о +15.5 +13.3 87 +16 +16 1016.7 990.8 0.2
02 10.06 В 2
{6}
н/о н/о +14.9 +13.6 92 +15 +15 1015.4 989.5 3
03 10.06 СЗ 1
{3}
н/о н/о +14.7 +13.7 94 +16 +16 1016.1 990.1 3
04 10.06 В 2
{3}
н/о н/о +15.0 +14.2 95 +15 +15 1015.4 989.5
05 10.06 З 1
{6}
н/о н/о +15.0 +13.7 92 +15 +15 1014.8 988.9
06 10.06 СВ 1
{5}
н/о н/о +15.7 +13.9 89 +16 +16 1014.7 988.9 +14.6 +17.2
07 10.06 В 1
{3}
н/о н/о +16.7 +14.0 84 +18 +18 1014.4 988.7
08 10.06 СВ 4
{7}
н/о н/о +17.4 +14.7 84 +17 +17 1014.0 988.3
09 10.06 С 4
{6}
н/о н/о +18.5 +14.2 76 +19 +19 1013.5 988.0
10 10.06 СВ 5
{6}
н/о н/о +17.8 +14.9 83 +17 +17 1013.5 987.9 0.2
11 10.06 СВ 2
{8}
н/о н/о +16.7 +13.6 82 +17 +17 1014.0 988.3 0.2
12 10.06 СВ 5
{7}
н/о н/о +16.3 +13.4 83 +15 +15 1013.3 987.6 0.4
13 10.06 СВ 2
{5}
н/о н/о +16.2 +14.2 88 +16 +16 1013.5 987.8 0.2
14 10.06 СВ 3
{6}
н/о н/о +15.5 +13.9 90 +15 +15 1014.1 988.3 1
16 10.06 В 1
{4}
н/о н/о +15.7 +13.9 89 +17 +17 1012.9 987.1 0.4
17 10.06 З 1
{3}
н/о н/о +15.3 +14.0 92 +16 +16 1012.7 986.9 0.6
18 10.06 З 2
{3}
н/о н/о +15.0 +14.0 94 +15 +15 1012.9 987.1 +15.0 +18.7 2
19 10.06 ЮЗ 2
{3}
н/о н/о +14.8 +13.8 94 +15 +15 1013.2 987.3 0.6
20 10.06 штиль 0
{4}
н/о н/о +14.4 +12.9 91 +14 +14 1013.1 987.2
21 10.06 Ю 1
{2}
н/о н/о +14.1 +13.1 94 +14 +14 1013.2 987.3 0.6
22 10.06 ЮЗ 1
{2}
н/о н/о +13.9 +12.8 93 +14 +14 1013.0 987.0
23 10.06 З 1
{2}
н/о н/о +13.8 +12.7 93 +15 +15 1012.9 986.9
00 11.06 С 1
{2}
н/о н/о +13.4 +12.0 91 +14 +14 1012.4 986.4
01 11.06 штиль 0
{2}
н/о н/о +13.4 +12.0 91 +13 +13 1012.5 986.5
02 11.06 З 1
{2}
н/о н/о +12.8 +11.4 91 +13 +13 1012.1 986.1
03 11.06 З 2
{4}
н/о н/о +12.4 +11.1 92 +11 +11 1011.9 985.8
04 11.06 С 1
{3}
н/о н/о +12.1 +11.2 94 +13 +13 1012.0 985.9 0.6
05 11.06 В 1
{3}
н/о н/о +11.9 +11.0 94 +13 +13 1011.4 985.3 0.2
06 11.06 СВ 1
{2}
н/о н/о +12.3 +11.4 94 +12 +12 1011.3 985.2 +11.9 +15.0 1
07 11.06 ЮЗ 1
{2}
н/о н/о +12.8 +11.5 92 +13 +13 1011.3 985.3
08 11.06 штиль 0
{3}
н/о н/о +12.3 +11.2 93 +12 +12 1011.6 985.5 2
09 11.06 З 1
{3}
н/о н/о +12.5 +11.6 94 +12 +12 1011.9 985.8 5
10 11.06 штиль 0
{3}
н/о н/о +12.6 +11.3 92 +12 +12 1012.2 986.1 3
11 11.06 ЮЗ 1
{2}
н/о н/о +13.7 +11.7 88 +15 +15 1011.7 985.8 1
12 11.06 В 1
{2}
н/о н/о +14.1 +11.4 84 +15 +15 1011.4 985.5 5
13 11.06 СЗ 1
{2}
н/о н/о +14.4 +11.4 82 +15 +15 1011.5 985.6 0.4
14 11.06 ЮЗ 1
{2}
н/о н/о +14.3 +11.4 83 +15 +15 1011.6 985.7 0.8
15 11.06 З 1
{2}
н/о н/о +14.0 +12.4 90 +14 +14 1011.7 985.8 2
16 11.06 ЮЗ 2
{3}
н/о н/о +13.9 +12.1 89 +13 +13 1011.5 985.6 0.2
17 11.06 штиль 0
{3}
н/о н/о +13.5 +12.4 93 +13 +13 1011.3 985.4 4
18 11.06 З 1
{4}
н/о н/о +13.0 +12.1 94 +13 +13 1011.3 985.3 +12.2 +14.7 8
19 11.06 ЮЗ 1
{3}
н/о н/о +12.6 +11.8 95 +12 +12 1011.8 985.8 7
20 11.06 ЮЗ 1
{4}
н/о н/о +12.3 +11.5 95 +12 +12 1012.4 986.3 4
21 11.06 З 1
{2}
н/о н/о +12.1 +11.3 95 +12 +12 1012.1 986.0 12
22 11.06 ЮЗ 1
{3}
н/о н/о +11.9 +11.1 95 +12 +12 1012.1 986.0 3
23 11.06 штиль 0
{2}
н/о н/о +11.8 +11.0 95 +11 +11 1011.3 985.2 5
00 12.06 СЗ 1
{4}
н/о н/о +11.7 +11.1 96 +11 +11 1011.1 985.0 14
01 12.06 ЮЗ 1
{5}
н/о н/о +11.8 +11.2 96 +12 +12 1011.7 985.6 5
02 12.06 ЮЗ 2
{8}
н/о н/о +11.7 +9.9 89 +10 +10 1012.5 986.3 2
03 12.06 Ю 2
{8}
н/о н/о +11.2 +8.9 86 +10 +10 1012.8 986.6 9
04 12.06 С 2
{3}
н/о н/о +10.9 +9.8 93 +10 +10 1013.2 986.9
05 12.06 СВ 1
{3}
н/о н/о +10.7 +9.6 93 +11 +11 1013.3 987.0
06 12.06 штиль 0
{2}
н/о н/о +12.0 +10.4 90 +11 +11 1013.6 987.4 +10.6 +13.0
07 12.06 В 2
{2}
н/о н/о +12.4 +10.1 86 +12 +12 1013.8 987.7
08 12.06 В 1
{2}
н/о н/о +13.6 +9.6 77 +14 +14 1013.5 987.5
09 12.06 СВ 1
{3}
н/о н/о +16.1 +9.3 64 +17 +17 1013.0 987.2
10 12.06 штиль 0
{3}
н/о н/о +16.9 +9.6 62 +17 +17 1012.9 987.2
11 12.06 З 2
{3}
н/о н/о +19.1 +11.1 60 +21 +21 комфорт 1012.2 986.7
12 12.06 ЮЗ 2
{4}
н/о н/о +20.4 +10.5 53 +23 +23 комфорт 1011.5 986.1
13 12.06 З 2
{4}
н/о н/о +21.6 +10.7 50 +23 +23 комфорт 1011.1 985.8
14 12.06 С 1
{6}
н/о н/о +22.4 +11.5 50 +25 +25 комфорт 1010.6 985.4
15 12.06 ЮЗ 1
{4}
н/о н/о +23.9 +11.2 45 +25 +25 комфорт 1010.3 985.3
16 12.06 С 2
{4}
н/о н/о +24.4 +11.7 45 +26 +26 жарко 1010.1 985.1
17 12.06 С 3
{5}
н/о н/о +22.8 +12.4 52 +26 +26 жарко 1010.4 985.3
18 12.06 СЗ 2
{5}
н/о н/о +21.9 +10.1 47 +24 +24 комфорт 1011.0 985.8 +12.0 +24.9
19 12.06 Ю 1
{2}
н/о н/о +19.8 +11.8 60 +22 +22 комфорт 1011.9 986.5
20 12.06 В 1
{2}
н/о н/о +16.6 +9.8 64 +18 +18 1013.0 987.3
22 12.06 штиль 0
{2}
н/о н/о +13.8 +10.6 81 +13 +13 1014.5 988.5
23 12.06 штиль 0
{2}
н/о н/о +12.9 +10.8 87 +12 +12 1015.1 989.0
00 13.06 штиль 0
{1}
н/о н/о +12.0 +9.9 87 +11 +11 1015.4 989.2
01 13.06 С 1
{2}
н/о н/о +10.9 +8.8 87 +11 +11 1015.8 989.5
02 13.06 штиль 0
{1}
н/о н/о +10.2 +8.8 91 +9 +9 1016.0 989.6
03 13.06 штиль 0
{1}
н/о н/о +9.8 +8.7 93 +9 +9 1016.1 989.7
04 13.06 З 1
{2}
н/о н/о +9.2 +8.3 94 +9 +9 1016.5 990.0
05 13.06 штиль 0
{1}
н/о н/о +10.3 +9.7 96 +9 +9 1016.7 990.3
06 13.06 штиль 0
{1}
н/о н/о +13.3 +10.3 82 +13 +13 1016.3 990.2 +9.0 +21.9
07 13.06 штиль 0
{2}
н/о н/о +16.4 +10.3 67 +16 +16 1016.1 990.3
08 13.06 С 2
{3}
н/о н/о +18.0 +9.6 58 +19 +19 1015.8 990.1
09 13.06 СВ 2
{3}
н/о н/о +20.0 +10.4 54 +22 +22 комфорт 1015.1 989.6
10 13.06 СЗ 1
{3}
н/о н/о +21.8 +9.3 45 +23 +23 комфорт 1014.3 989.0
11 13.06 СЗ 1
{3}
н/о н/о +23.4 +9.0 40 +25 +25 комфорт 1013.5 988.3
12 13.06 З 2
{4}
н/о н/о +24.5 +7.6 34 +25 +25 комфорт 1012.8 987.7
13 13.06 З 2
{4}
н/о н/о +26.1 +9.9 36 +27 +27 жарко 1012.0 987.1
14 13.06 З 3
{5}
н/о н/о +27.1 +7.5 29 +27 +27 жарко 1011.6 986.8
15 13.06 З 4
{6}
н/о н/о +27.4 +7.3 28 +27 +27 жарко 1011.3 986.5
16 13.06 З 2
{5}
н/о н/о +28.7 +8.4 28 +28 +28 жарко 1011.0 986.3
17 13.06 СВ 3
{4}
н/о н/о +26.6 +11.1 38 +28 +28 жарко 1010.8 986.0
18 13.06 СВ 2
{4}
н/о н/о +26.4 +10.9 38 +27 +27 жарко 1011.1 986.2 +13.4 +29.5
19 13.06 С 1
{2}
н/о н/о +22.7 +11.1 48 +25 +25 комфорт 1011.6 986.4
20 13.06 штиль 0
{2}
н/о н/о +19.4 +10.1 55 +20 +20 1012.6 987.1
21 13.06 С 1
{2}
н/о н/о +17.9 +13.2 74 +19 +19 1013.3 987.7
22 13.06 С 2
{3}
н/о н/о +17.3 +12.4 73 +18 +18 1013.5 987.8
23 13.06 ЮВ 1
{3}
н/о н/о +17.5 +11.7 69 +19 +19 1014.3 988.6
00 14.06 штиль 0
{2}
н/о н/о +16.6 +11.7 73 +17 +17 1013.3 987.6
01 14.06 Ю 2
{3}
н/о н/о +16.0 +11.6 75 +16 +16 1013.6 987.8
02 14.06 СВ 1
{2}
н/о н/о +15.4 +12.5 83 +16 +16 1013.4 987.6
03 14.06 С 2
{3}
н/о н/о +14.8 +12.7 87 +14 +14 1012.7 986.8
04 14.06 В 1
{3}
н/о н/о +15.3 +11.7 79 +16 +16 1013.3 987.5
05 14.06 В 2
{4}
н/о н/о +15.8 +11.4 75 +16 +16 1012.2 986.4
06 14.06 Ю 1
{4}
н/о н/о +16.1 +12.1 77 +17 +17 1015.5 989.7 +14.6 +26.4
07 14.06 Ю 2
{6}
н/о н/о +16.0 +12.7 81 +16 +16 1016.6 990.7 0.2
08 14.06 З 1
{3}
н/о н/о +16.0 +13.7 86 +17 +17 1017.2 991.3
09 14.06 ЮВ 2
{5}
н/о н/о +17.1 +13.8 81 +18 +18 1015.9 990.2 0.6
10 14.06 З 3
{9}
н/о н/о +20.1 +13.8 67 +22 +22 комфорт 1013.5 988.1
11 14.06 С 2
{7}
н/о н/о +20.9 +13.8 64 +24 +24 комфорт 1014.4 989.0
12 14.06 СВ 6
{9}
н/о н/о +22.3 +14.2 60 +26 +26 жарко 1012.6 987.4
13 14.06 СВ 4
{7}
н/о н/о +23.3 +13.7 55 +27 +27 душно 1011.0 985.9
14 14.06 СВ 1
{6}
н/о н/о +24.5 +14.0 52 +27 +27 жарко 1010.0 985.0
15 14.06 С 3
{5}
н/о н/о +24.7 +15.1 55 +28 +28 душно 1009.3 984.4
16 14.06 С 3
{7}
н/о н/о +24.0 +15.5 59 +27 +27 жарко 1007.7 982.8
17 14.06 С 4
{6}
н/о н/о +23.4 +15.2 60 +28 +28 душно 1007.1 982.1
18 14.06 ЮЗ 1
{7}
н/о н/о +23.5 +16.0 63 +27 +27 душно 1007.2 982.3 +15.9 +24.8
19 14.06 ЮВ 2
{4}
н/о н/о +22.3 +15.4 65 +26 +26 жарко 1007.9 982.8
20 14.06 ЮВ 2
{4}
н/о н/о +20.0 +16.0 78 +23 +23 комфорт 1009.1 983.8
21 14.06 СЗ 1
{2}
н/о н/о +18.5 +15.7 84 +20 +20 1010.2 984.8
22 14.06 штиль 0
{2}
н/о н/о +17.6 +15.4 87 +18 +18 1011.1 985.5
23 14.06 штиль 0
{2}
н/о н/о +17.8 +14.9 83 +18 +18 1012.3 986.7
00 15.06 З 3
{6}
н/о н/о +18.9 +15.4 80 +20 +20 1012.9 987.4
01 15.06 СВ 2
{7}
н/о н/о +18.1 +15.5 85 +19 +19 1013.6 988.0
02 15.06 ЮВ 1
{4}
н/о н/о +18.4 +15.1 81 +21 +21 комфорт 1014.1 988.5
03 15.06 штиль 0
{2}
н/о н/о +17.8 +14.7 82 +18 +18 1014.2 988.6
04 15.06 СЗ 1
{2}
н/о н/о +17.3 +14.9 86 +19 +19 1014.6 988.9
05 15.06 штиль 0
{2}
н/о н/о +17.6 +15.0 85 +18 +18 1015.0 989.3
06 15.06 ЮЗ 5
{9}
н/о н/о +17.5 +14.9 85 +17 +17 1016.4 990.7 +17.2 +23.6 2
07 15.06 СВ 2
{4}
н/о н/о +16.9 +15.9 94 +17 +17 1016.9 991.1 15
08 15.06 ЮВ 1
{3}
н/о н/о +19.3 +16.0 81 +22 +22 комфорт 1016.3 990.8 0.2
09 15.06 ЮЗ 1
{3}
н/о н/о +20.1 +15.9 77 +24 +24 комфорт 1016.2 990.7 16
10 15.06 ЮЗ 2
{4}
н/о н/о +22.2 +15.8 67 +26 +26 душно 1015.6 990.3
11 15.06 ЮЗ 1
{3}
н/о н/о +23.3 +16.3 65 +28 +28 душно 1014.9 989.7
12 15.06 СВ 2
{4}
н/о н/о +24.5 +16.5 61 +28 +28 душно 1013.4 988.4
13 15.06 С 2
{5}
н/о н/о +25.2 +17.1 61 +29 +29 душно 1011.6 986.7
14 15.06 Ю 7
{12}
н/о н/о +19.5 +13.7 69 +21 +21 комфорт 1014.8 989.3 2
15 15.06 Ю 8-13
{13}
н/о н/о +18.0 +13.1 73 +17 +17 1018.6 992.9 7
16 15.06 З 1
{12}
н/о н/о +16.6 +14.6 88 +17 +17 1019.7 993.8 4
17 15.06 СВ 6
{9}
н/о н/о +16.5 +14.1 86 +15 +15 1019.5 993.6 0.2
18 15.06 С 3
{7}
н/о н/о +17.0 +13.7 81 +17 +17 1019.1 993.3 +16.4 +25.6 4
19 15.06 штиль 0
{3}
н/о н/о +15.7 +13.7 88 +15 +15 1019.4 993.5
20 15.06 С 1
{2}
н/о н/о +14.5 +13.2 92 +16 +16 1020.0 993.9
21 15.06 С 1
{2}
н/о н/о +13.8 +12.9 94 +15 +15 1021.0 994.8
22 15.06 штиль 0
{1}
н/о н/о +13.1 +12.2 94 +13 +13 1021.2 995.0

 

Местоположение метеостанции Гренобль (Франция): широта 45.22 долгота 5.85 высота над уровнем моря 220 м.

В архиве по умолчанию представлена погода в Гренобле за последнюю неделю. Архивные данные за месяц целиком и за предыдущие месяцы, начиная с января 2011 года, Вы можете получить, выбрав интересующий диапазон дат из раскрывающегося списка и нажав кнопку "Ввод!".


*Определитесь, кто Вы:
робот инопланетянин человек

Внимание! Время в таблицах - всемирное. Для получения местного времени необходимо прибавить поправку, которая равна 1 ч.

Смотрите также архив погоды в соседних городах и на ближайших метеорологических станциях:

Погода в Гренобль аэропорту (Франция) (44 км)
Погода в Шамбери (Франция) (46 км)
Погода в Бриансоне (Франция) (71 км)
Погода в Анси (Франция) (82 км)
Погода в Лионе (Франция) (83 км)
Погода в Бур-сен-Морисе (Франция) (84 км)
Погода в Амбрёне (Франция) (89 км)
Погода в Лион аэропорту (Франция) (90 км)
Погода в Амберьё-ан-Бюже (Франция) (94 км)
Погода в Монтелимаре (Франция) (113 км)

Пояснения к столбцам:

Ветер - указаны скорость ветра в м/с - средняя за 10 мин, порывы в срок и между сроками (в фигурных скобках) и направление, откуда дует ветер: С - северный, СВ - северо-восточный, В - восточный, ЮВ - юго-восточный, Ю - южный, ЮЗ - юго-западный, З - западный, СЗ - северо-западный.
Видимость - горизонтальная дальность видимости в метрах или километрах. При видимости от 1 до 10 км при отсутствии осадков обычно наблюдается дымка, при ухудшении видимости до 1 км и менее - туман. В сухую погоду видимость может ухудшаться дымом, пылью или мглою.
Явления - указаны атмосферные явления, наблюдавшиеся в срок или в последний час перед сроком; фигурными скобками обозначены явления, наблюдавшиеся между сроками (за 1-3 часа до срока); квадратными скобками обозначены град или гололедные отложения с указанием их диаметра в мм.
Облачность - указаны через наклонную черту общая и нижняя облачность в баллах и высота нижней границы облаков в метрах; квадратными скобками обозначены формы облаков: Ci - перистые, Cs - перисто-слоистые, Cc - перисто-кучевые, Ac - высококучевые, As - высокослоистые, Sc - слоисто-кучевые, Ns - слоисто-дождевые, Cu - кучевые, Cb - кучево-дождевые. Подробнее классификацию облаков см. в Атласе облаков (PDF).
T - Температура воздуха - температура, измеренная на высоте 2 м над землей.
Td - Температура точки росы - температура, при понижении до которой содержащийся в воздухе водяной пар достигнет насыщения.
f - Относительная влажность воздуха - влажноcть воздуха, измеренная на высоте 2 м над землей.
Te - Эффективная температура - температура, которую ощущает одетый по сезону человек в тени. Характеристика душности погоды. При расчете учитывается влияние влажности воздуха и скорости ветра на теплоощущения человека.
Tes - Эффективная температура на солнце - температура, которую ощущает человек, с поправкой на солнечный нагрев. Характеристика знойности погоды. Зависит от высоты солнца над горизонтом, облачности и скорости ветра. Ночью, в пасмурную погоду, а также при ветре 12 м/с и более поправка равна нулю.
P - Атмосферное давление - приведенное к уровню моря атмосферное давление.
Po - Атмосферное давление - измеренное на уровне метеостанции атмосферное давление.
Tmin - Минимальная температура - минимум температуры воздуха на высоте 2 м над землей.
Tmax - Максимальная температура - максимум температуры воздуха на высоте 2 м над землей.
R - Количество осадков - Количество выпавших осадков за период времени, мм. При наведении курсора мыши на число - период времени, за который выпало указанное количество осадков.
R24 - Количество осадков - Количество выпавших осадков за 24 часа, мм.
S - Снежный покров - Высота снежного покрова, см. При наведении курсора мыши на число - состояние снежного покрова и степень покрытия местности в баллах.